Cheyenne, WY

6:04 AM MDT on August 27, 2016 (GMT -0600)
Cheyenne

Weather History for KCYS - November, 2012

Change the Weather History Date:

Sunday, November 11, 2012

  Actual Average Record
Temperature  
Mean Temperature 18 °F 37 °F  
Max Temperature 30 °F 49 °F 70 °F (1971)
Min Temperature 6 °F 26 °F -9 °F (1911)
Degree Days  
Heating Degree Days 47 28  
Month to date heating degree days 259 282  
Since 1 July heating degree days 1061 1141  
Cooling Degree Days 0 0  
Month to date cooling degree days 0 0  
Year to date cooling degree days 568 348  
Moisture  
Dew Point 4 °F    
Average Humidity 61    
Maximum Humidity 91    
Minimum Humidity 31    
Precipitation  
Precipitation 0.00 in 0.02 in 0.50 in (1912)
Month to date precipitation 0.01 0.22  
Year to date precipitation 9.57 15.08  
Snow  
Snow 0.00 in 0.30 in 6.30 in (1955)
Month to date snowfall 0.3 2.6  
Since 1 July snowfall 10.5 8.9  
Snow Depth T in    
Sea Level Pressure  
Sea Level Pressure 30.06 in    
Wind  
Wind Speed 13 mph (WNW)    
Max Wind Speed 33 mph    
Max Gust Speed 43 mph    
Visibility 9 miles    
Events      
T = Trace of Precipitation, MM = Missing Value Source: NWS Daily Summary

Daily Weather History Graph

Daily Weather History Graph

Search for Another Location

Airport or City:

Trip Planner

Search our weather history database for the weather conditions in past years. The results will help you decide how hot, cold, wet, or windy it might be!

Date:

Astronomy

Nov. 11, 2012 Rise Set
Actual Time 6:42 AM MST 4:43 PM MST
Civil Twilight 6:13 AM MST 5:12 PM MST
Nautical Twilight 5:40 AM MST 5:45 PM MST
Astronomical Twilight 5:08 AM MST 6:18 PM MST
Moon 3:58 AM MST (11/11) 3:09 PM MST (11/11)
Length of Visible Light 10h 58m
Length of Day
10h 00m
Waning Crescent, 7% of the Moon is Illuminated
Nov 11
Waning Crescent
Nov 13
New
Nov 20
First Quarter
Nov 28
Full
Dec 6
Last Quarter

Hourly Weather History & Observations

Time (MST) Temp. Windchill Dew Point Humidity Pressure Visibility Wind Dir Wind Speed Gust Speed Precip Events Conditions
12:53 AM 7.0 °F -4.5 °F 3.9 °F 87% 30.00 in 10.0 mi NW 6.9 mph - N/A   Clear
1:53 AM 7.0 °F -3.3 °F 3.9 °F 87% 30.00 in 10.0 mi NNW 5.8 mph - N/A   Partly Cloudy
2:05 AM 6.8 °F -2.0 °F 3.2 °F 85% 29.79 in 10.0 mi NW 4.6 mph - N/A   Mostly Cloudy
2:29 AM 8.6 °F -1.3 °F 5.0 °F 85% 29.79 in 1.8 mi WNW 5.8 mph - N/A   Overcast
2:36 AM 8.6 °F 0.1 °F 5.0 °F 85% 29.80 in 3.0 mi WNW 4.6 mph - N/A   Overcast
2:53 AM 9.0 °F -3.2 °F 6.1 °F 88% 30.01 in 8.0 mi West 8.1 mph - N/A   Overcast
3:12 AM 8.6 °F -4.7 °F 5.0 °F 85% 29.80 in 10.0 mi West 9.2 mph - N/A   Partly Cloudy
3:53 AM 10.9 °F -1.8 °F 7.0 °F 84% 30.01 in 10.0 mi West 9.2 mph - N/A   Clear
4:53 AM 10.9 °F -0.8 °F 7.0 °F 84% 30.02 in 10.0 mi WSW 8.1 mph - N/A   Clear
5:53 AM 10.0 °F - 5.0 °F 80% 30.05 in 10.0 mi Calm Calm - N/A   Clear
6:53 AM 8.6 °F -1.3 °F 5.0 °F 85% 29.84 in 10.0 mi WSW 5.8 mph - N/A   Clear
7:53 AM 12.9 °F - 8.1 °F 81% 30.11 in 10.0 mi Calm Calm - N/A   Clear
9:32 AM 24.8 °F 9.0 °F 8.6 °F 50% 29.88 in 10.0 mi West 25.3 mph 34.5 mph N/A   Clear
9:53 AM 25.0 °F 9.2 °F 7.0 °F 46% 30.07 in 10.0 mi West 25.3 mph 33.4 mph N/A   Clear
10:53 AM 25.0 °F 11.7 °F 6.1 °F 45% 30.08 in 10.0 mi NW 17.3 mph 25.3 mph N/A   Scattered Clouds
11:53 AM 28.0 °F 12.8 °F 1.9 °F 33% 30.07 in 10.0 mi West 27.6 mph 39.1 mph N/A   Clear
12:53 PM 28.9 °F 14.8 °F 3.0 °F 33% 30.08 in 10.0 mi West 24.2 mph 40.3 mph N/A   Scattered Clouds
1:53 PM 28.0 °F 14.6 °F 1.0 °F 31% 30.10 in 10.0 mi WNW 20.7 mph 39.1 mph N/A   Overcast
2:53 PM 26.1 °F 12.3 °F 1.0 °F 34% 30.12 in 10.0 mi NW 19.6 mph 32.2 mph N/A   Scattered Clouds
3:53 PM 25.0 °F 9.5 °F -2.0 °F 31% 30.14 in 10.0 mi WNW 24.2 mph 35.7 mph N/A   Clear
4:53 PM 21.9 °F 8.2 °F 3.0 °F 44% 30.19 in 10.0 mi NW 16.1 mph 25.3 mph N/A   Clear
5:53 PM 21.0 °F 11.4 °F 3.0 °F 46% 30.22 in 10.0 mi WNW 8.1 mph - N/A   Clear
6:53 PM 21.0 °F 8.1 °F 3.9 °F 48% 30.25 in 10.0 mi WNW 13.8 mph - N/A   Clear
8:53 PM 21.0 °F 8.1 °F 1.9 °F 44% 30.25 in 10.0 mi WNW 13.8 mph 18.4 mph N/A   Clear
9:53 PM 19.9 °F 10.1 °F 1.9 °F 46% 30.23 in 10.0 mi NW 8.1 mph 17.3 mph N/A   Clear
10:53 PM 18.0 °F 4.8 °F 1.9 °F 50% 30.25 in 10.0 mi West 12.7 mph 19.6 mph N/A   Clear
11:53 PM 19.9 °F 3.2 °F -0.0 °F 42% 30.24 in 10.0 mi WNW 23.0 mph 33.4 mph N/A   Clear